Regional Weather Roundup
Issued by NWS Midland/Odessa, TX

Skip options and go directly to product.
Home | Oldest Version | Previous Version | Current Version | All | Text Only | Save Text | Print | Product List | Glossary On

Skip product version selection by date and time.   
834
ASUS44 KMAF 241010
RWRMAF
MIDLAND AREA WEATHER ROUNDUP
NATIONAL WEATHER SERVICE MIDLAND TX
500 AM CDT THU APR 24 2014

...IN SOUTHWEST TEXAS AND SOUTHEAST NEW MEXICO...

CITY           SKY/WX    TMP DP  RH WIND       PRES   REMARKS
ALPINE         CLEAR     66  24  19 NW3       30.01R
ANDREWS        FAIR      60  33  35 NW5       29.85R
ARTESIA        CLEAR     54  18  24 W10       29.90R
BIG SPRING     CLEAR     66  55  66 CALM      29.83R
CARLSBAD       CLEAR     54  29  38 SW5       29.87R
DRYDEN           N/A     69  58  67 N9        29.80R
FORT STOCKTON  PTCLDY    66  28  24 SW10      29.85R
GUAD PASS      CLEAR     62  11  13 W23G31    29.97R
HOBBS          CLEAR     52  23  32 NW9       29.89R
MARFA          CLEAR     59  21  23 NW15      29.99R
MIDLAND AIRPK  CLEAR     66  53  62 NW7       29.83R
MIDLAND INTL   CLEAR     64  52  64 NW10      29.82R
ODESSA           N/A    N/A N/A N/A MISG      29.83R
PECOS          CLEAR     60  33  37 W9        29.84R
PRESIDIO       FAIR      72  24  16 W7        29.87R
SEMINOLE       CLEAR     61  24  24 NW12      29.86R
SNYDER         PTCLDY    69  58  65 SW5       29.79S
WINK           CLEAR     65  26  23 N8        29.82R
$$
...OTHER STATIONS IN TEXAS...

CITY           SKY/WX    TMP DP  RH WIND       PRES   REMARKS
ABILENE        CLEAR     69  60  73 S17G29    29.70S
AMARILLO       CLOUDY    54  33  45 NW26G32   29.84R HAZE
AUSTIN         MOCLDY    66  63  90 S8        29.80R
BROWNSVILLE    CLOUDY    73  70  90 S20       29.74F
CORPUS CHRISTI MOCLDY    72  67  84 S14G23    29.74F
DALLAS FTW     MOCLDY    69  61  75 S17       29.75S
DEL RIO        PTCLDY    70  62  76 E13       29.73R
EL PASO        FAIR      68   9  10 NW21G29   29.92S
HOUSTON INT    MOCLDY    70  65  84 S9        29.82S
LUBBOCK        PTCLDY    63  19  18 W25G35    29.78R
SAN ANGELO     CLEAR     70  61  73 SW13      29.74S
SAN ANTONIO    MOCLDY    67  63  87 SE12      29.79F
WACO           PTCLDY    66  61  84 S13       29.78F
WICHITA FALLS  NOT AVBL
$$
...OTHER LOCATIONS IN NEW MEXICO...

CITY           SKY/WX    TMP DP  RH WIND       PRES   REMARKS
ALAMAGORDO     CLEAR     54  10  17 N9        29.95R
ALBUQUERQUE    CLEAR     49  12  22 NW6       30.05R
CANNON AFB     CLEAR     51  17  26 NW9       29.88R
CLOVIS         CLEAR     52  18  25 NW10      29.90R
HOLLOMAN AFB   CLEAR     50  14  24 N7        29.94S
ROSWELL        CLEAR     61  12  14 N14       29.89R
RUIDOSO        CLEAR     46   9  21 NE7       30.05R
SANTA FE       CLEAR     37   9  31 N10       30.04R WCI  30
TRUTH OR CONSE FAIR      54  10  17 W15       30.00R
TUCUMCARI      CLOUDY    53  34  48 N22       29.91R HAZE
$$

USA.gov is the U.S. government's official web portal to all federal, state and local government web resources and services.